Volver al catálogo

STARLINK-1972

ActivoComunicacionesVLEO
NORAD 47627·PAYLOAD·🇺🇸 United States

Lanzado Feb 16, 2021 desde Cape Canaveral Space Force Station

Loading…

Próximos Pases (próximas 24 horas)

TLE

ActualizadoSource: CelesTrak SupGP

Época: Sep 14, 2026, 21:01 UTC

1 47627C 21012H   26257.87618056  .00178140  00000+0  62762-3 0  2578
2 47627  53.0371 115.4344 0003935 147.7545 183.4548 15.88298584    14

Sigue STARLINK-1972 en tiempo real con AllMySat

Download on the App Store